This demonstration page uses our WeatherBlox Daily Observations layout. Learn more.

Hourly Observations for December 18, 2016

Temp ( °F °C ) Dew Point ( °F °C ) Humidity (%) Winds ( mph kmh ) Pressure ( in mb ) Visibility ( mi km ) Precip ( " mm )
12:15 am 00:15 Clear -9 -22.5 -16 -26.4 71 71 WNW 6 9 30.65 1038 10 16.0934 0 0
12:35 am 00:35 Clear -10 -23.3 -17 -27.2 70 70 W 6 9 30.68 1039 10 16.0934 0 0
12:55 am 00:55 Clear -9 -23 -16 -26.7 72 72 W 5 7 30.68 1039 10 16.0934 0 0
1:15 am 01:15 Clear -10 -23.2 -16 -26.9 72 72 W 5 7 30.68 1039 10 16.0934 0 0
1:35 am 01:35 Clear -10 -23.6 -17 -27.2 72 72 WSW 3 6 30.68 1039 10 16.0934 0 0
1:55 am 01:55 Clear -9 -22.9 -16 -26.6 72 72 Calm 30.65 1038 10 16.0934 0 0
2:15 am 02:15 Clear -10 -23.1 -16 -26.9 71 71 Calm 30.68 1039 10 16.0934 0 0
2:35 am 02:35 Clear -9 -23 -16 -26.8 71 71 WSW 5 7 30.68 1039 10 16.0934 0 0
2:55 am 02:55 Clear -10 -23.1 -17 -27 70 70 WSW 3 6 30.68 1039 10 16.0934 0 0
3:15 am 03:15 Clear -11 -23.7 -17 -27.3 72 72 WSW 5 7 30.68 1039 10 16.0934 0 0
3:35 am 03:35 Clear -11 -23.9 -18 -27.7 71 71 WSW 5 7 30.68 1039 10 16.0934 0 0
3:55 am 03:55 Clear -10 -23.5 -17 -27.1 72 72 SW 5 7 30.68 1039 10 16.0934 0 0
4:15 am 04:15 Clear -10 -23.5 -17 -27 73 73 Calm 30.68 1039 10 16.0934 0 0
4:35 am 04:35 Clear -11 -24 -18 -27.7 72 72 Calm 30.68 1039 10 16.0934 0 0
4:55 am 04:55 Clear -10 -23.6 -17 -27.2 72 72 W 3 6 30.68 1039 10 16.0934 0 0
5:15 am 05:15 Clear -10 -23.6 -16 -26.8 75 75 Calm 30.68 1039 10 16.0934 0 0
5:35 am 05:35 Clear -11 -24 -18 -27.5 73 73 SW 5 7 30.68 1039 10 16.0934 0 0
5:55 am 05:55 Clear -11 -24 -18 -27.6 72 72 SW 5 7 30.68 1039 10 16.0934 0 0
6:15 am 06:15 Clear -11 -23.8 -17 -27.4 72 72 SW 5 7 30.68 1039 10 16.0934 0 0
6:35 am 06:35 Clear -10 -23.5 -17 -27.1 72 72 SW 6 9 30.71 1040 10 16.0934 0 0
6:55 am 06:55 Clear -10 -23.6 -17 -27.1 73 73 WSW 8 13 30.71 1040 10 16.0934 0 0
7:15 am 07:15 Clear -10 -23.1 -16 -26.7 72 72 Calm 30.71 1040 10 16.0934 0 0
7:35 am 07:35 Clear -10 -23.2 -16 -26.8 72 72 WSW 6 9 30.71 1040 10 16.0934 0 0
7:55 am 07:55 Clear -9 -22.5 -15 -26.3 71 71 SW 7 11 30.68 1039 10 16.0934 0 0
8:15 am 08:15 Sunny -9 -22.5 -16 -26.4 71 71 SW 7 11 30.68 1039 10 16.0934 0 0
8:35 am 08:35 Sunny -8 -22.2 -15 -26 71 71 SW 8 13 30.71 1040 10 16.0934 0 0
8:55 am 08:55 Sunny -7 -21.4 -13 -25.2 72 72 WSW 5 7 30.71 1040 10 16.0934 0 0
9:15 am 09:15 Sunny -3 -19.6 -10 -23.6 71 71 SSW 6 9 30.68 1039 10 16.0934 0 0
9:35 am 09:35 Sunny -1 -18.4 -9 -22.6 70 70 SW 7 11 30.71 1040 10 16.0934 0 0
9:55 am 09:55 Sunny 0 -18 -8 -22.2 70 70 SW 9 15 30.71 1040 10 16.0934 0 0
10:15 am 10:15 Sunny -1 -18.1 -9 -22.5 69 69 SW 8 13 30.71 1040 10 16.0934 0 0
10:35 am 10:35 Sunny 1 -17.2 -7 -21.5 69 69 SW 6 9 30.71 1040 10 16.0934 0 0
10:55 am 10:55 Sunny 4 -15.7 -5 -20.4 67 67 WSW 8 13 30.68 1039 10 16.0934 0 0
11:15 am 11:15 Sunny 5 -14.8 -3 -19.6 67 67 SW 8 13 30.68 1039 10 16.0934 0 0
11:35 am 11:35 Sunny 8 -13.4 -1 -18.6 65 65 SW 9 15 30.65 1038 10 16.0934 0 0
11:55 am 11:55 Sunny 10 -12.4 0 -17.7 65 65 SW 10 17 30.62 1037 10 16.0934 0 0
12:15 pm 12:15 Sunny 12 -11.1 1 -17 62 62 SW 10 17 30.59 1036 10 16.0934 0 0
12:35 pm 12:35 Sunny 14 -9.8 3 -15.9 61 61 SW 14 22 30.59 1036 10 16.0934 0 0
12:55 pm 12:55 Sunny 15 -9.6 4 -15.7 61 61 SSW 15 24 30.59 1036 10 16.0934 0 0
1:15 pm 13:15 Sunny 15 -9.3 5 -15.2 63 63 SW 14 22 30.59 1036 10 16.0934 0 0
1:35 pm 13:35 Sunny 17 -8.6 6 -14.4 63 63 SW 15 24 30.56 1035 10 16.0934 0 0
1:55 pm 13:55 Sunny 17 -8.4 7 -14 64 64 SSW 15 24 30.53 1034 10 16.0934 0 0
2:15 pm 14:15 Sunny 19 -7.3 8 -13.2 63 63 SSW 13 20 30.53 1034 10 16.0934 0 0
2:35 pm 14:35 Sunny 20 -6.5 9 -13 60 60 SW 12 19 30.53 1034 10 16.0934 0 0
2:55 pm 14:55 Sunny 21 -5.9 9 -12.6 60 60 SW 8 13 30.5 1033 10 16.0934 0 0
3:15 pm 15:15 Sunny 22 -5.7 10 -12.5 59 59 SW 14 22 30.53 1034 10 16.0934 0 0
3:35 pm 15:35 Sunny 22 -5.5 10 -12.2 60 60 SSW 13 20 30.5 1033 10 16.0934 0 0
3:55 pm 15:55 Sunny 22 -5.5 10 -12.2 60 60 SSW 10 17 30.53 1034 10 16.0934 0 0
4:15 pm 16:15 Sunny 22 -5.5 10 -12.1 60 60 SSW 8 13 30.53 1034 10 16.0934 0 0
4:35 pm 16:35 Sunny 22 -5.7 10 -12.1 61 61 SSW 8 13 30.53 1034 10 16.0934 0 0
4:55 pm 16:55 Sunny 21 -6.2 10 -12.2 63 63 S 5 7 30.56 1035 10 16.0934 0 0
5:15 pm 17:15 Clear 18 -7.6 9 -12.6 68 68 SW 3 6 30.56 1035 10 16.0934 0 0
5:35 pm 17:35 Clear 17 -8.4 9 -13 70 70 S 8 13 30.56 1035 10 16.0934 0 0
5:55 pm 17:55 Clear 15 -9.6 7 -14.1 70 70 SSW 6 9 30.59 1036 10 16.0934 0 0
6:15 pm 18:15 Clear 14 -10 6 -14.2 72 72 SSW 5 7 30.62 1037 10 16.0934 0 0
6:35 pm 18:35 Clear 12 -11 5 -14.8 74 74 SSW 6 9 30.62 1037 10 16.0934 0 0
6:55 pm 18:55 Clear 13 -10.5 6 -14.5 73 73 SSW 6 9 30.62 1037 10 16.0934 0 0
7:15 pm 19:15 Clear 13 -10.4 6 -14.3 73 73 SSW 3 6 30.62 1037 10 16.0934 0 0
7:35 pm 19:35 Clear 12 -10.9 6 -14.6 74 74 SSW 5 7 30.62 1037 10 16.0934 0 0
7:55 pm 19:55 Clear 11 -11.8 4 -15.4 75 75 SSW 5 7 30.68 1039 10 16.0934 0 0
8:15 pm 20:15 Clear 11 -11.7 4 -15.5 74 74 SSW 9 15 30.68 1039 10 16.0934 0 0
8:35 pm 20:35 Clear 11 -11.6 4 -15.5 73 73 SSW 12 19 30.68 1039 10 16.0934 0 0
8:55 pm 20:55 Clear 12 -11 5 -15.1 72 72 SSW 12 19 30.65 1038 10 16.0934 0 0
9:15 pm 21:15 Clear 13 -10.8 5 -15.1 71 71 S 12 19 30.65 1038 10 16.0934 0 0
9:35 pm 21:35 Clear 12 -11.1 4 -15.4 71 71 SSW 9 15 30.65 1038 10 16.0934 0 0
9:55 pm 21:55 Clear 11 -11.7 4 -15.7 72 72 SSW 10 17 30.68 1039 10 16.0934 0 0
10:15 pm 22:15 Clear 10 -12 4 -15.8 74 74 SSW 8 13 30.68 1039 10 16.0934 0 0
10:35 pm 22:35 Clear 10 -12 4 -15.8 74 74 SSW 12 19 30.71 1040 10 16.0934 0 0
10:55 pm 22:55 Clear 10 -12 3 -15.9 73 73 SSW 13 20 30.68 1039 10 16.0934 0 0
11:15 pm 23:15 Clear 11 -11.4 4 -15.5 72 72 SW 10 17 30.68 1039 10 16.0934 0 0
11:35 pm 23:35 Clear 12 -11 4 -15.5 70 70 SSW 13 20 30.65 1038 10 16.0934 0 0
11:55 pm 23:55 Clear 10 -12.5 2 -16.4 73 73 SSW 10 17 30.68 1039 10 16.0934 0 0

Powered by AerisWeather